Location: Binningen
(47.7924°N, 8.7261°E)
Time: 20:41:36
(UTC+00:00)

Cosmos 1867 - Pass Details

Date: 17 May 2021
Orbit: 773 x 802 km, 65.0° (Epoch: 21 June)

Event Time Altitude Azimuth Distance (km) Brightness Sun altitude
Exits shadow 21:56:32 21° 214° (SSW) 1,713 5.0 -20.0°
Maximum altitude 22:00:15 86° 127° (SE) 804 3.5 -20.2°
Drops below altitude 10° 22:05:45 10° 38° (NE) 2,382 6.5 -20.6°
Sets 22:08:11 0° 38° (NE) 3,318 7.3 -20.7°
